900302 978  1.4+  0.9+    960113 108  0.5+  0.8+    970624 118  0.3-  0.2-  

900302 657  1.9+  0.1+    960113 605  1.1-  1.3+    970624 118  0.5-  0.2+  

900302 996 (2.4+  2.4+)   960114 118  0.2-  0.7+    970626 118  0.4-  0.3+  

900302 996  1.9+  0.8+    960114 118  0.6+  0.7+    970626 118  0.2-  0.6+  

900302 996  2.2+  0.9+    960114 026  1.3+  0.2-    970626 118  0.7-  0.1+  

900302 996 (5.0+  0.2-)   960115 107  2.2-  1.4+    970626 402  0.1-  0.6+  

900304 026  1.6-  2.1+    960115 107  2.1-  1.4+    970626 402  0.5-  0.7+  

900305 881 (2.6+  0.4+)   960115 118  0.3+  0.7+    970626 402  0.0   0.4+  

900305 026  1.1-  0.2-    960115 118  0.6+  0.5+    970628 118  0.4-  0.3+  

900313 046  0.5-  0.0     960115 605  0.2-  1.6+    970628 118  0.6-  0.0   

900313 046  1.9+  0.2+    960115 605  0.6-  1.0+    970628 118  0.6+  0.2+  

900315 897  1.1+  0.2+    960115 605  0.4-  1.3+    970629 352  0.3-  0.2+  

900315 897  0.5-  0.9+    960116 107  1.5-  1.5+    970629 352  0.5-  0.3+  

900315 046  2.0+  0.3-    960116 897  0.2-  1.0+    970629 402  0.1-  0.3+  

900315 046  0.5+  0.2-    960116 107 (2.3-  1.9+)   970629 402  0.0   0.4+  

900316 046  0.5+  0.3+    960116 897  0.9+  0.7+    970629 402  0.5-  0.3+  

900316 046  1.0+  0.7-    960117 118  0.7+  0.2+    970629 360  0.5-  0.1-  

900316 026  0.1+  0.5+    960117 118  0.5+  0.4+    970629 360  0.3-  0.0   

900316 026  0.8+  0.7+    960118 108  0.1-  0.6+    970630 372  1.2+  0.2-  

900317 046 (2.5+  0.7-)   960118 108  1.6+  0.2+    970703 402  0.4+  0.4+  

900317 046  1.2+  0.3+    960119 605  0.7-  0.8+    970703 402  0.7+  0.3+  

900318 046  1.4+  0.2+    960119 605  0.7-  0.2+    970703 402  0.4+  0.4+  

900318 046  0.2-  0.8+    960120 410  0.2-  0.7+    970704 897  0.3-  0.5+  

900318 056  0.0   0.9+    960120 410  0.3-  0.7+    970704 897  0.0   1.0+  

900318 056  0.6-  0.3+    960120 410  0.6-  0.6+    970704 897  0.4-  0.8+  

900319 009  0.2+  1.3+    960120 372  0.2+  0.1+    970704 900  1.1-  0.4+  

900319 056  0.2-  0.7-    960120 360  0.4-  0.3+    970704 900  0.7-  0.6+  

900320 095  1.0+  0.2+    960120 360  0.2-  0.1+    970705 360  0.5-  0.3+  

900320 095  1.4+  0.1-    960121 764  0.3-  0.5+    970705 360  0.6-  0.4+  

900321 391  0.6+  1.9-    960121 819  0.8-  0.8+    970705 360  0.5-  0.2+  

900321 391  0.6+  0.6-    960121 819  0.6-  1.0+    970706 402  0.3-  0.4+  

900321 056  0.7+  0.8-    960121 819  0.4-  0.0     970706 402  0.5-  0.4+  

900321 056  0.9+  0.2+    960121 819  1.2-  0.7+    970706 402  0.5-  0.2+  

900322 801  0.5+  0.3+    960121 819  1.2-  0.2-    970706 610  0.2+  0.6+  

900324 056  0.2-  0.1+    960121 819  0.3-  1.1+    970707 610  0.4+  0.7+  

900324 056  0.3+  0.4-    960121 819  0.7-  0.2-    970707 610  0.5+  0.7+  

900324 026  1.0-  0.6+    960121 819  0.6-  1.6+    970707 610  0.5+  0.7+  

900324 503  0.6-  1.4+    960121 118  0.3-  0.2+    970707 610  0.7+  0.8+  

900326 391  0.8+  1.1+    960121 118  0.1-  0.1+    970707 610  0.3+  1.3+  

900326 391 (2.6+  0.9+)   960121 617  0.8-  0.4+    970707 610  0.6+  0.9+  

900326 095  0.3+  0.0     960121 617  0.6-  0.0     970708 610  1.0+  0.6+  

900326 095  0.6-  0.4+    960122 764  0.1-  1.2+    970708 610  0.8+  0.7+  

900327 801  0.1+  0.4+    960122 605  0.5-  1.3+    970709 610  1.0+  0.4+  

900327 657 (3.1+  2.0-)   960122 605  0.9-  1.2+    970709 610  1.1+  0.2+  

900329 657 (5.5+  3.7-)   960123 612  0.3+  0.5+    970711 696  0.6-  0.2+  

900329 657 (3.3+  0.9-)   960123 612  0.3-  0.5+    970711 696  0.6-  0.1-  

900330 095  1.0+  0.5+    960125 764  0.3-  0.7+    970711 696  0.6-  0.2+  

900330 095  0.6+  0.1+    960127 900  0.0   0.4+    970711 696  0.6-  0.3+  

900331 026  0.7-  0.5+    960127 900  0.2+  0.1+    970711 046  0.3-  0.0   

900401 026  1.1-  1.6+    960129 612  0.3+  0.0     970711 046  0.1+  0.2-  

900412 046  0.7-  0.7+    960129 612  0.7+  0.1+    970711 046  0.2-  0.1-  

900412 046  0.3-  0.9+    960130 605  0.5+  0.4+    970712 610  1.3+  0.8+  

900413 046  0.1-  1.1+    960130 605  0.7+  0.1+    970712 610  0.7+  0.6+  

900413 046  0.5+  1.1+    960130 107  0.4-  0.5+    970712 610  0.4+  0.5+  

900413 595 (2.9+  1.0-)   960130 107  0.6-  0.6+    970713 372  2.0-  0.4+  

900414 026  0.5-  0.3+    960131 118  0.7+  0.5-    970714 355  0.6-  0.1-  

900417 046  0.1+  1.0+    960131 118  0.6+  0.5-    970714 355  0.3-  0.1-  

900417 046  1.2+  0.2+    960131 118  1.1+  0.2-    970714 355  0.1-  0.1-  

900419 026  0.7-  1.5+    960131 118  0.6+  0.4-    970722 610  1.3+  1.6+  

900419 595  1.6+  0.6-    960203 867  1.4+  0.1+    970722 610  0.2+  1.8+  

900423 801  0.1+  0.8+    960203 867  0.8+  0.1+    970722 610  0.8-  2.0+  

900423 801  0.1+  0.7+    960205 900  1.0+  0.3+    970724 372  0.6-  0.9+  

900423 897  1.7-  1.0+    960205 900  1.5+  0.1-    970724 867  0.5-  0.3+  

900423 897  0.1+  0.7+    960205 118  1.1+  0.1+    970724 867  0.4-  0.6+  

900424 801  0.3+  0.6+    960207 107 (5.1+  0.6+)   970729 372  0.6-  1.0+  

900424 801 (2.4-  0.8-)   960207 107 (4.1+  0.0 )   970801 367  0.5+  0.8+  

900425 675  1.8-  1.5+    960209 118 (2.7+  0.0 )   970801 367  0.7+  0.7+  

900425 675  0.5-  1.7+    960210 359  0.7+  0.5+    970801 367  0.9+  0.9+  

900428 026  0.9-  1.4+    960210 359  0.7+  0.0     970801 360  0.1-  0.8+  

900429 372 (4.2-  1.2+)   960210 359  1.1+  0.3-    970801 360  0.3-  1.1+  

900429 026  1.9-  1.8+    960210 026  1.4+  0.7-    970802 861  0.6+  0.5+  

900429 595 (0.0   4.2+)   960212 897 (2.5+  0.3-)   970802 861  0.3-  0.1-  

900515 897 (2.6-  3.6+)   960212 897  2.0+  0.5+    970806 118  0.5+  0.2+  

900516 026 (2.9-  0.7+)   960212 897  2.2+  0.8-    970806 118  0.7+  0.3+  

900517 095  2.2-  0.0     960215 360  1.2+  0.4-    970806 118  0.1+  0.1+  

900517 095  1.7-  0.6+    960215 360  1.3+  0.3-    970809 897 (0.6+  2.8+) 

900519 056 (7.7-  2.5+)   960218 801  1.8+  0.3-    970809 897 (1.3+  3.1+) 

900519 056 (3.6-  2.9+)   960218 764  2.1+  0.1-    970811 402  0.6+  0.3+  

900521 026 (3.3-  1.3+)   960218 801  1.7+  0.6-    970811 402  0.5+  0.6+  

900525 026  0.9-  0.1+    960222 764  2.0+  0.6-    970811 402  0.4+  0.0   

900526 372 (4.8-  1.0+)   960222 900  1.2+  0.9-    970821 372  0.5-  0.3+  

900527 026  0.8-  0.1+    960222 900  0.9+  0.9-    970827 360  0.1-  1.3+  

900611 372 (2.3-  2.8+)   960224 764  1.0+  1.1-    970827 360  0.1-  1.1+  

900611 372 (2.7-  1.7+)   960224 118  0.1-  0.1+    971021 867  1.4+  1.1+  

900613 413 (5.6-  2.4+)   960224 026  0.1+  0.3-    971021 867  0.4+  0.7+  

900613 413 (4.7-  3.1+)   960224 026  0.4-  1.3-    971021 867  0.4+  1.3+  

900615 413 (2.7-  2.2+)   960225 118  1.9+  0.1-    1998/                   

900616 026 (1.6+  4.8-)   960228 605  1.7+  0.8-    980619 696  0.6-  1.9+  

900625 026  1.6-  1.3-    960228 605  2.2+  0.4+    980619 696  1.4-  1.5+  

900814 413  1.5-  0.0     960228 605 (2.8+  0.2-)   980619 696  1.0-  1.7+  

900818 413  1.8-  0.2+    960301 612  0.9+  0.2-    981122 693 (2.6-  1.6+) 

1994/                     960301 612  0.9+  0.2-    981122 693 (1.8-  2.3+) 

941109 691 (7.0+  2.7+)   960301 605  1.9+  0.3+    981122 693  0.8-  1.9+  





 118P/Shoemaker-Levy 4 

Epoch 2003 July 20.0 TT = JDT 2452840.5  

T 2003 July 16.82684 TT                                 Nakano

q   2.0110563            (2000.0)            P               Q

n   0.15178612     Peri.  302.09147     -0.07637598     -0.99467768

a   3.4805511      Node   152.03918     +0.95729705     -0.09254928

e   0.4222017      Incl.    8.48224     +0.27883519     +0.04528724

P   6.49

From 242 observations 1991-1999, mean residual 0".77.

Residuals in seconds of arc 

1991/                     961116 897  0.7-  0.5+    970129 897  1.0+  0.3+  

910209 675 (0.0   4.0-)   961116 897  0.9-  0.5+    970129 108  1.7+  1.2+  

910211 675 (4.1+  0.3-)   961117 691  0.2-  0.5-    970129 108 (1.1+  2.3-) 

910211 675 (2.4-  0.3-)   961117 691  0.3-  0.4-    970130 360  1.0+  0.8+  

910211 675  1.9-  0.4-    961119 900  0.7-  0.4+    970130 360  0.6+  0.3+  

910212 413  0.3-  0.5+    961119 900  1.4-  0.4+    970201 900  1.9+  0.4+  

910212 372  1.7-  1.0-    961122 118  0.1-  0.4-    970201 900 (2.5+  0.0 ) 

910212 372  0.8-  0.1-    961122 118  0.5-  0.0     970201 108  1.5+  0.4-  

910213 413  0.4-  0.5-    961122 118  0.5-  0.2+    970201 108  0.6+  0.5-  

910214 675 (5.5+  2.5-)   961130 900  1.2-  1.6+    970201 605  1.9+  0.5+  

910216 801 (6.0-  0.4+)   961130 897  0.7-  0.2-    970201 605 (2.9+  0.7-) 

910216 801  0.6-  0.2+    961130 897  0.8-  0.0     970201 605  2.1+  1.2+  

910216 675  0.2+  0.7-    961201 118  0.8-  0.1-    970205 861  0.3+  0.4-  

910216 675  0.1-  0.5+    961201 108  1.1-  1.3-    970205 861  1.3+  0.1-  

910220 675  0.1+  0.6-    961201 108  1.4-  0.6-    970207 108  0.8+  1.1-  

910220 675  2.0-  0.2-    961201 108  0.4+  1.7-    970207 108  0.6+  1.4+  

910220 372  1.2+  0.4-    961202 900  1.0-  0.4-    970208 046  0.4+  0.1-  

910220 372  1.5+  0.9+    961202 900  1.0-  0.6-    970208 046  0.5+  0.0   

910225 413  0.5+  0.5+    961203 360  0.1-  0.7-    970208 046  0.7+  0.1+  

910309 675  0.0   1.3-    961203 360  0.3-  0.9-    970208 108  1.8+  0.9-  

910309 675  1.5-  0.8-    961203 108  0.1+  1.7-    970208 108  0.9+  0.3-  

910313 801  0.0   0.8+    961203 108  0.8-  0.2-    970209 360  0.4+  0.1+  

910313 801  0.0   0.5+    961205 046  0.3-  0.5-    970209 360  0.3+  0.1-  

910316 801  0.1+  0.6+    961205 046  0.2-  0.6-    970210 118  0.8+  0.0   

910316 801  0.4-  0.1+    961205 046  0.2-  0.5-    970210 118  1.0+  0.1+  

910316 372  0.5+  0.2-    961207 900  0.6-  0.1-    970210 118  1.0+  0.1-  

910316 372 (1.1+  2.7+)   961207 900  0.6-  0.6-    970211 861  0.7+  1.0+  

910412 801  0.9+  0.6+    961209 801  0.2-  1.5-    970211 861  0.7+  0.6-  

